• In Belarus
  • List of Countries
  • For 7 days
  • Water Temperature
  • Satellite Maps
  • Weather Map
  • Weather Widgets
  • user-avatar
    Login

    Hourly Weather Bregenz

    Today, 18 February, Monday

    Time Temperature Precipitation Wind Pressure Humidity
    00:00 -2°C° 0 mm 2 mps 649 mmHg 59%
    01:00 -2°C° 0 mm 2 mps 649 mmHg 53%
    02:00 -2°C° 0 mm 2 mps 648 mmHg 54%
    03:00 -3°C° 0 mm 2 mps 648 mmHg 55%
    04:00 -3°C° 0 mm 2 mps 648 mmHg 56%
    05:00 -3°C° 0 mm 2 mps 648 mmHg 56%
    06:00 -3°C° 0 mm 2 mps 648 mmHg 56%
    07:00 -4°C° 0 mm 2 mps 648 mmHg 55%
    08:00 -2°C° 0 mm 2 mps 648 mmHg 56%
    09:00 +2°C° 0 mm 1 mps 648 mmHg 57%
    10:00 +4°C° 0 mm 1 mps 648 mmHg 59%
    11:00 +5°C° 0 mm 1 mps 648 mmHg 59%
    12:00 +7°C° 0 mm 1 mps 648 mmHg 59%
    13:00 +7°C° 0 mm 0 mps 648 mmHg 59%
    14:00 +7°C° 0 mm 0 mps 648 mmHg 63%
    15:00 +7°C° 0 mm 0 mps 648 mmHg 66%
    16:00 +6°C° 0 mm 0 mps 647 mmHg 69%
    17:00 +5°C° 0 mm 1 mps 647 mmHg 71%
    18:00 +4°C° 0 mm 1 mps 647 mmHg 72%
    19:00 +2°C° 0 mm 1 mps 647 mmHg 74%
    20:00 -1°C° 0 mm 2 mps 647 mmHg 72%
    21:00 -1°C° 0 mm 2 mps 647 mmHg 71%
    22:00 -2°C° 0 mm 2 mps 647 mmHg 69%
    23:00 -2°C° 0 mm 2 mps 647 mmHg 67%

    Tomorrow, 19 February, Tuesday

    Time Temperature Precipitation Wind Pressure Humidity
    00:00 -3°C° 0 mm 2 mps 647 mmHg 65%
    01:00 -3°C° 0 mm 2 mps 646 mmHg 63%
    02:00 -3°C° 0 mm 2 mps 646 mmHg 62%
    03:00 -3°C° 0 mm 2 mps 646 mmHg 62%
    04:00 -4°C° 0 mm 2 mps 646 mmHg 61%
    05:00 -4°C° 0 mm 2 mps 646 mmHg 61%
    06:00 -4°C° 0 mm 2 mps 646 mmHg 61%
    07:00 -4°C° 0 mm 2 mps 646 mmHg 61%
    08:00 -2°C° 0 mm 2 mps 646 mmHg 60%
    09:00 +1°C° 0 mm 1 mps 647 mmHg 60%
    10:00 +3°C° 0 mm 1 mps 647 mmHg 59%
    11:00 +4°C° 0 mm 1 mps 647 mmHg 58%
    12:00 +5°C° 0 mm 1 mps 648 mmHg 57%
    13:00 +6°C° 0 mm 1 mps 648 mmHg 56%
    14:00 +6°C° 0 mm 1 mps 648 mmHg 58%
    15:00 +5°C° 0 mm 1 mps 647 mmHg 60%
    16:00 +5°C° 0 mm 1 mps 647 mmHg 63%
    17:00 +3°C° 0 mm 1 mps 647 mmHg 67%
    18:00 +2°C° 0 mm 1 mps 647 mmHg 72%
    19:00 0°C° 0 mm 1 mps 647 mmHg 76%
    20:00 -1°C° 0 mm 1 mps 647 mmHg 76%
    21:00 -3°C° 0 mm 2 mps 647 mmHg 75%
    22:00 -3°C° 0 mm 2 mps 647 mmHg 75%
    23:00 -4°C° 0 mm 2 mps 648 mmHg 73%

    Day after tomorrow, 20 February, Wednesday

    Time Temperature Precipitation Wind Pressure Humidity
    00:00 -4°C° 0 mm 2 mps 648 mmHg 72%
    01:00 -4°C° 0 mm 2 mps 648 mmHg 70%
    02:00 -4°C° 0 mm 2 mps 648 mmHg 69%
    03:00 -4°C° 0 mm 2 mps 647 mmHg 67%
    04:00 -5°C° 0 mm 2 mps 647 mmHg 66%
    05:00 -5°C° 0 mm 2 mps 647 mmHg 65%
    06:00 -5°C° 0 mm 2 mps 647 mmHg 64%
    07:00 -5°C° 0 mm 2 mps 647 mmHg 64%
    08:00 -1°C° 0 mm 1 mps 648 mmHg 61%
    09:00 +1°C° 0 mm 1 mps 649 mmHg 59%
    10:00 +3°C° 0 mm 1 mps 649 mmHg 56%
    11:00 +3°C° 0 mm 0 mps 650 mmHg 56%
    12:00 +4°C° 0 mm 0 mps 650 mmHg 55%
    13:00 +5°C° 0 mm 0 mps 650 mmHg 55%
    14:00 +5°C° 0 mm 0 mps 650 mmHg 57%
    15:00 +5°C° 0 mm 0 mps 650 mmHg 60%
    16:00 +4°C° 0 mm 0 mps 650 mmHg 62%
    17:00 +3°C° 0 mm 0 mps 650 mmHg 67%
    18:00 +2°C° 0 mm 1 mps 650 mmHg 71%
    19:00 0°C° 0 mm 1 mps 649 mmHg 75%
    20:00 0°C° 0 mm 1 mps 650 mmHg 76%
    21:00 0°C° 0 mm 1 mps 650 mmHg 76%
    22:00 -3°C° 0 mm 2 mps 650 mmHg 77%
    23:00 -3°C° 0 mm 2 mps 650 mmHg 75%

    21 February, Thursday

    Time Temperature Precipitation Wind Pressure Humidity
    00:00 -3°C° 0 mm 2 mps 650 mmHg 74%
    01:00 -3°C° 0 mm 2 mps 651 mmHg 73%
    02:00 -3°C° 0 mm 2 mps 650 mmHg 72%
    03:00 -3°C° 0 mm 2 mps 650 mmHg 70%
    04:00 -3°C° 0 mm 2 mps 650 mmHg 69%
    05:00 -3°C° 0 mm 2 mps 651 mmHg 68%
    06:00 -3°C° 0 mm 2 mps 651 mmHg 67%
    07:00 -1°C° 0 mm 1 mps 651 mmHg 66%
    08:00 0°C° 0 mm 1 mps 652 mmHg 64%
    09:00 +2°C° 0 mm 1 mps 652 mmHg 62%
    10:00 +4°C° 0 mm 1 mps 653 mmHg 59%
    11:00 +5°C° 0 mm 1 mps 653 mmHg 58%
    12:00 +6°C° 0 mm 1 mps 654 mmHg 57%
    13:00 +7°C° 0 mm 1 mps 654 mmHg 56%
    14:00 +6°C° 0 mm 0 mps 654 mmHg 58%
    15:00 +6°C° 0 mm 0 mps 654 mmHg 60%
    16:00 +5°C° 0 mm 0 mps 654 mmHg 62%
    17:00 +4°C° 0 mm 0 mps 654 mmHg 67%
    18:00 +3°C° 0 mm 1 mps 653 mmHg 71%
    19:00 +1°C° 0 mm 1 mps 653 mmHg 76%
    20:00 +1°C° 0 mm 1 mps 654 mmHg 75%
    21:00 +1°C° 0 mm 1 mps 654 mmHg 74%
    22:00 -1°C° 0 mm 2 mps 654 mmHg 74%
    23:00 -2°C° 0 mm 2 mps 655 mmHg 72%

    22 February, Friday

    Time Temperature Precipitation Wind Pressure Humidity
    00:00 0°C° 0 mm 1 mps 655 mmHg 71%
    01:00 0°C° 0 mm 1 mps 655 mmHg 69%
    02:00 0°C° 0 mm 1 mps 655 mmHg 68%
    03:00 0°C° 0 mm 1 mps 655 mmHg 67%
    04:00 0°C° 0 mm 1 mps 655 mmHg 66%
    05:00 0°C° 0 mm 1 mps 655 mmHg 66%
    06:00 0°C° 0 mm 1 mps 655 mmHg 65%
    07:00 0°C° 0 mm 1 mps 655 mmHg 65%
    08:00 +1°C° 0 mm 1 mps 656 mmHg 63%
    09:00 +3°C° 0 mm 1 mps 656 mmHg 61%
    10:00 +5°C° 0 mm 1 mps 657 mmHg 59%
    11:00 +6°C° 0 mm 1 mps 657 mmHg 57%
    12:00 +8°C° 0 mm 1 mps 657 mmHg 56%
    13:00 +9°C° 0 mm 1 mps 658 mmHg 54%
    14:00 +9°C° 0 mm 1 mps 658 mmHg 58%
    15:00 +9°C° 0 mm 1 mps 657 mmHg 61%
    16:00 +7°C° 0 mm 2 mps 657 mmHg 65%
    17:00 +7°C° 0 mm 1 mps 657 mmHg 71%
    18:00 +5°C° 0 mm 1 mps 657 mmHg 77%
    19:00 +3°C° 0 mm 1 mps 657 mmHg 82%
    20:00 +3°C° 0 mm 1 mps 657 mmHg 82%
    21:00 +3°C° 0 mm 1 mps 657 mmHg 81%
    22:00 +2°C° 0 mm 1 mps 657 mmHg 80%
    23:00 +2°C° 0 mm 1 mps 657 mmHg 79%

    23 February, Saturday

    Time Temperature Precipitation Wind Pressure Humidity
    00:00 +2°C° 0 mm 1 mps 657 mmHg 79%
    01:00 +2°C° 0 mm 1 mps 657 mmHg 78%
    02:00 +2°C° 0 mm 1 mps 657 mmHg 76%
    03:00 +2°C° 0 mm 1 mps 657 mmHg 75%
    04:00 +1°C° 0 mm 1 mps 657 mmHg 73%
    05:00 +1°C° 0 mm 1 mps 657 mmHg 72%
    06:00 +1°C° 0 mm 1 mps 657 mmHg 71%
    07:00 +1°C° 0 mm 1 mps 657 mmHg 69%
    08:00 +3°C° 0 mm 1 mps 657 mmHg 67%
    09:00 +5°C° 0 mm 1 mps 658 mmHg 64%
    10:00 +6°C° 0 mm 0 mps 658 mmHg 61%
    11:00 +8°C° 0 mm 1 mps 658 mmHg 60%
    12:00 +9°C° 0 mm 1 mps 659 mmHg 58%
    13:00 +10°C° 0 mm 1 mps 659 mmHg 57%
    14:00 +10°C° 0 mm 1 mps 659 mmHg 60%
    15:00 +10°C° 0 mm 1 mps 659 mmHg 63%
    16:00 +10°C° 0 mm 1 mps 658 mmHg 65%
    17:00 +8°C° 0 mm 1 mps 658 mmHg 71%
    18:00 +6°C° 0 mm 1 mps 658 mmHg 77%
    19:00 +4°C° 0 mm 1 mps 658 mmHg 82%
    20:00 +4°C° 0 mm 1 mps 658 mmHg 81%
    21:00 +4°C° 0 mm 1 mps 658 mmHg 79%
    22:00 +3°C° 0 mm 1 mps 657 mmHg 78%
    23:00 +3°C° 0 mm 1 mps 657 mmHg 76%
    Show more